QPF
0.05 0.03 0.01 0.01 0.02 0.02 0.02 0.01 0.01 0.00 0.00 0.01 0.01 0.01 0.01 0.01 0.01 0.01 0.01 0.00 0.00 0.01 0.03 0.05 0.06 0.07 0.06 0.04 0.04 0.04 0.03 0.02 0.01 0.02 0.02 0.03 0.04 0.05 0.05 0.04 0.03 0.02 0.02
0.06 0.04 0.02 0.01 0.01 0.01 0.02 0.02 0.02 0.01 0.01 0.01 0.01 0.01 0.01 0.01 0.01 0.01 0.01 0.01 0.00 0.01 0.01 0.04 0.05 0.07 0.08 0.06 0.06 0.05 0.03 0.02 0.01 0.01 0.01 0.02 0.03 0.04 0.05 0.04 0.04 0.03 0.03
0.05 0.03 0.02 0.01 0.01 0.01 0.01 0.02 0.02 0.01 0.01 0.01 0.01 0.01 0.01 0.01 0.01 0.01 0.01 0.01 0.01 0.01 0.01 0.02 0.04 0.06 0.07 0.08 0.07 0.08 0.05 0.02 0.01 0.01 0.01 0.01 0.02 0.03 0.05 0.05 0.04 0.04 0.04
0.04 0.03 0.02 0.01 0.01 0.01 0.01 0.01 0.01 0.02 0.02 0.01 0.01 0.01 0.01 0.02 0.02 0.02 0.02 0.02 0.02 0.01 0.02 0.03 0.04 0.05 0.07 0.08 0.07 0.07 0.08 0.03 0.02 0.01 0.01 0.01 0.02 0.02 0.03 0.04 0.05 0.04 0.04
0.03 0.03 0.02 0.01 0.01 0.01 0.01 0.01 0.01 0.01 0.02 0.03 0.03 0.02 0.02 0.01 0.01 0.02 0.02 0.02 0.03 0.03 0.02 0.02 0.04 0.06 0.07 0.07 0.07 0.05 0.07 0.06 0.02 0.01 0.01 0.01 0.01 0.02 0.02 0.03 0.04 0.05 0.05
0.04 0.03 0.03 0.01 0.01 0.01 0.01 0.01 0.01 0.01 0.01 0.02 0.03 0.04 0.03 0.02 0.02 0.02 0.01 0.02 0.02 0.04 0.05 0.03 0.02 0.04 0.06 0.08 0.07 0.06 0.06 0.06 0.04 0.02 0.02 0.01 0.01 0.01 0.02 0.03 0.04 0.05 0.05
0.06 0.05 0.04 0.03 0.01 0.01 0.01 0.01 0.01 0.01 0.01 0.01 0.02 0.04 0.04 0.03 0.03 0.02 0.02 0.02 0.01 0.02 0.05 0.07 0.04 0.02 0.05 0.07 0.08 0.07 0.06 0.05 0.04 0.03 0.03 0.02 0.02 0.02 0.02 0.02 0.03 0.04 0.06
0.04 0.05 0.05 0.04 0.02 0.01 0.01 0.01 0.01 0.01 0.01 0.02 0.02 0.02 0.04 0.04 0.03 0.02 0.02 0.02 0.02 0.01 0.02 0.04 0.06 0.05 0.05 0.07 0.07 0.08 0.06 0.06 0.05 0.03 0.02 0.03 0.02 0.02 0.02 0.02 0.02 0.03 0.03
0.03 0.03 0.04 0.05 0.04 0.01 0.01 0.01 0.01 0.01 0.01 0.02 0.03 0.03 0.03 0.04 0.03 0.02 0.02 0.02 0.02 0.02 0.02 0.03 0.04 0.05 0.06 0.07 0.08 0.07 0.06 0.06 0.07 0.05 0.03 0.02 0.02 0.03 0.02 0.02 0.02 0.03 0.03
0.03 0.02 0.02 0.03 0.04 0.03 0.01 0.01 0.01 0.01 0.01 0.02 0.02 0.03 0.04 0.03 0.03 0.03 0.02 0.02 0.02 0.03 0.03 0.03 0.03 0.04 0.06 0.07 0.08 0.07 0.06 0.05 0.07 0.07 0.05 0.03 0.02 0.02 0.03 0.03 0.03 0.04 0.04
0.02 0.02 0.02 0.01 0.02 0.02 0.02 0.01 0.01 0.01 0.01 0.01 0.02 0.02 0.02 0.02 0.02 0.02 0.02 0.02 0.02 0.03 0.04 0.04 0.03 0.04 0.06 0.07 0.07 0.08 0.07 0.05 0.06 0.08 0.07 0.04 0.03 0.03 0.03 0.04 0.04 0.04 0.04
0.02 0.01 0.01 0.01 0.01 0.01 0.01 0.01 0.01 0.00 0.00 0.01 0.01 0.01 0.02 0.03 0.02 0.02 0.02 0.01 0.01 0.02 0.03 0.05 0.05 0.05 0.05 0.07 0.07 0.06 0.07 0.06 0.06 0.08 0.09 0.07 0.05 0.03 0.03 0.04 0.04 0.05 0.05
0.01 0.01 0.01 0.01 0.01 0.01 0.01 0.01 0.01 0.01 0.01 0.00 0.00 0.00 0.01 0.02 0.02 0.02 0.02 0.02 0.02 0.02 0.03 0.04 0.04 0.05 0.05 0.06 0.06 0.05 0.06 0.07 0.07 0.07 0.09 0.08 0.06 0.04 0.03 0.03 0.04 0.05 0.05
0.01 0.01 0.01 0.00 0.00 0.00 0.01 0.01 0.01 0.01 0.00 0.00 0.00 0.00 0.01 0.01 0.01 0.02 0.02 0.02 0.03 0.03 0.04 0.05 0.06 0.05 0.06 0.06 0.06 0.06 0.05 0.06 0.06 0.06 0.08 0.09 0.07 0.05 0.02 0.02 0.02 0.03 0.04
0.00 0.00 0.00 0.00 0.00 0.00 0.00 0.01 0.01 0.01 0.01 0.00 0.00 0.01 0.01 0.01 0.01 0.01 0.02 0.02 0.03 0.04 0.04 0.05 0.07 0.07 0.07 0.06 0.06 0.05 0.05 0.07 0.06 0.05 0.06 0.07 0.05 0.05 0.04 0.02 0.02 0.02 0.03
0.00 0.00 0.00 0.00 0.01 0.01 0.00 0.01 0.01 0.01 0.00 0.00 0.00 0.01 0.01 0.01 0.01 0.01 0.01 0.02 0.03 0.05 0.05 0.05 0.06 0.07 0.07 0.07 0.07 0.06 0.07 0.08 0.07 0.06 0.05 0.04 0.04 0.03 0.04 0.03 0.02 0.02 0.02
0.00 0.00 0.00 0.00 0.00 0.00 0.01 0.01 0.01 0.01 0.01 0.00 0.00 0.00 0.00 0.01 0.01 0.01 0.01 0.02 0.03 0.05 0.05 0.05 0.06 0.07 0.08 0.07 0.06 0.07 0.08 0.08 0.08 0.07 0.06 0.04 0.03 0.03 0.03 0.03 0.03 0.02 0.02
0.00 0.00 0.00 0.00 0.00 0.00 0.00 0.01 0.01 0.01 0.01 0.01 0.00 0.01 0.01 0.01 0.01 0.01 0.02 0.02 0.03 0.04 0.05 0.05 0.07 0.08 0.08 0.07 0.06 0.06 0.07 0.07 0.06 0.06 0.06 0.06 0.04 0.03 0.03 0.03 0.03 0.03 0.03
0.01 0.01 0.01 0.01 0.01 0.00 0.00 0.01 0.01 0.01 0.01 0.01 0.01 0.01 0.01 0.01 0.01 0.02 0.02 0.03 0.04 0.04 0.04 0.05 0.06 0.07 0.07 0.05 0.05 0.06 0.06 0.05 0.05 0.04 0.04 0.05 0.05 0.04 0.03 0.03 0.02 0.02 0.03
0.01 0.02 0.02 0.02 0.01 0.01 0.01 0.01 0.01 0.02 0.02 0.02 0.01 0.01 0.01 0.02 0.02 0.02 0.03 0.03 0.04 0.04 0.05 0.05 0.05 0.05 0.06 0.05 0.04 0.05 0.06 0.05 0.05 0.04 0.03 0.03 0.04 0.04 0.03 0.03 0.02 0.02 0.02
0.01 0.01 0.01 0.02 0.01 0.02 0.01 0.01 0.02 0.02 0.02 0.02 0.02 0.02 0.02 0.03 0.03 0.03 0.03 0.04 0.05 0.05 0.05 0.05 0.05 0.05 0.05 0.05 0.04 0.04 0.05 0.05 0.05 0.04 0.04 0.03 0.03 0.03 0.03 0.03 0.03 0.02 0.01
0.01 0.01 0.01 0.02 0.02 0.01 0.02 0.02 0.02 0.02 0.02 0.02 0.03 0.03 0.03 0.03 0.03 0.03 0.05 0.05 0.05 0.05 0.05 0.05 0.05 0.05 0.05 0.04 0.04 0.04 0.04 0.05 0.05 0.04 0.04 0.03 0.03 0.03 0.03 0.03 0.04 0.03 0.02
0.01 0.01 0.02 0.02 0.02 0.02 0.03 0.03 0.03 0.03 0.03 0.03 0.02 0.02 0.02 0.02 0.02 0.03 0.04 0.05 0.05 0.05 0.05 0.06 0.06 0.05 0.04 0.04 0.04 0.04 0.04 0.04 0.04 0.03 0.03 0.04 0.03 0.03 0.03 0.03 0.04 0.03 0.03
0.01 0.02 0.02 0.02 0.03 0.03 0.03 0.03 0.03 0.03 0.03 0.03 0.02 0.02 0.02 0.02 0.02 0.02 0.03 0.04 0.04 0.04 0.04 0.05 0.05 0.04 0.05 0.05 0.04 0.04 0.04 0.04 0.03 0.03 0.03 0.04 0.03 0.03 0.02 0.02 0.03 0.04 0.04
0.01 0.01 0.01 0.01 0.02 0.02 0.03 0.04 0.04 0.03 0.03 0.02 0.02 0.02 0.02 0.02 0.03 0.03 0.04 0.04 0.03 0.04 0.05 0.05 0.05 0.05 0.06 0.06 0.05 0.05 0.05 0.04 0.04 0.03 0.02 0.03 0.03 0.03 0.02 0.02 0.02 0.03 0.03
0.01 0.01 0.01 0.01 0.02 0.02 0.03 0.03 0.03 0.03 0.02 0.02 0.02 0.02 0.02 0.02 0.02 0.03 0.04 0.03 0.02 0.02 0.03 0.03 0.03 0.02 0.03 0.03 0.04 0.04 0.05 0.05 0.05 0.03 0.02 0.02 0.02 0.02 0.03 0.02 0.02 0.02 0.02
MSLP
1020.51 1020.68 1020.81 1020.90 1020.97 1021.02 1021.04 1021.04 1020.99 1020.89 1020.72 1020.48 1020.21 1019.91 1019.62 1019.36 1019.13 1018.94 1018.77 1018.60 1018.40 1018.16 1017.85 1017.48 1017.08 1016.65 1016.24 1015.85 1015.50 1015.18 1014.89 1014.61 1014.35 1014.08 1013.83 1013.59 1013.39 1013.24 1013.14 1013.10 1013.12 1013.19 1013.29
1020.65 1020.83 1020.97 1021.08 1021.16 1021.23 1021.27 1021.28 1021.22 1021.10 1020.90 1020.63 1020.31 1019.97 1019.64 1019.35 1019.10 1018.90 1018.74 1018.58 1018.40 1018.18 1017.89 1017.56 1017.17 1016.76 1016.35 1015.96 1015.60 1015.27 1014.96 1014.67 1014.38 1014.09 1013.81 1013.54 1013.30 1013.10 1012.96 1012.87 1012.84 1012.86 1012.92
1020.82 1020.99 1021.12 1021.24 1021.34 1021.42 1021.48 1021.50 1021.44 1021.32 1021.09 1020.79 1020.44 1020.05 1019.67 1019.34 1019.06 1018.84 1018.68 1018.54 1018.39 1018.21 1017.97 1017.68 1017.33 1016.95 1016.55 1016.16 1015.78 1015.42 1015.08 1014.74 1014.42 1014.09 1013.77 1013.47 1013.19 1012.94 1012.75 1012.60 1012.52 1012.48 1012.50
1021.05 1021.20 1021.33 1021.44 1021.54 1021.64 1021.71 1021.74 1021.70 1021.57 1021.34 1021.02 1020.63 1020.20 1019.77 1019.39 1019.08 1018.84 1018.67 1018.55 1018.44 1018.31 1018.13 1017.90 1017.60 1017.24 1016.85 1016.44 1016.03 1015.63 1015.23 1014.84 1014.46 1014.09 1013.72 1013.37 1013.04 1012.75 1012.50 1012.30 1012.15 1012.04 1011.99
1021.37 1021.50 1021.61 1021.71 1021.81 1021.91 1021.99 1022.03 1022.01 1021.89 1021.67 1021.33 1020.92 1020.46 1019.99 1019.57 1019.22 1018.96 1018.79 1018.68 1018.61 1018.52 1018.40 1018.22 1017.96 1017.63 1017.23 1016.80 1016.34 1015.87 1015.40 1014.94 1014.49 1014.05 1013.63 1013.23 1012.86 1012.52 1012.21 1011.95 1011.73 1011.56 1011.43
1021.76 1021.88 1021.97 1022.05 1022.14 1022.23 1022.32 1022.38 1022.37 1022.28 1022.07 1021.75 1021.33 1020.85 1020.36 1019.91 1019.53 1019.25 1019.07 1018.97 1018.92 1018.87 1018.79 1018.64 1018.40 1018.06 1017.64 1017.16 1016.63 1016.08 1015.53 1014.99 1014.47 1013.97 1013.50 1013.06 1012.65 1012.27 1011.92 1011.60 1011.31 1011.05 1010.84
1022.21 1022.32 1022.39 1022.44 1022.50 1022.58 1022.67 1022.74 1022.76 1022.70 1022.53 1022.24 1021.84 1021.37 1020.88 1020.41 1020.01 1019.71 1019.52 1019.42 1019.36 1019.32 1019.25 1019.09 1018.84 1018.47 1018.00 1017.45 1016.84 1016.21 1015.57 1014.96 1014.38 1013.83 1013.33 1012.86 1012.42 1012.01 1011.62 1011.25 1010.90 1010.57 1010.27
1022.68 1022.76 1022.80 1022.81 1022.84 1022.90 1022.98 1023.07 1023.12 1023.11 1022.99 1022.75 1022.41 1021.98 1021.51 1021.05 1020.64 1020.32 1020.11 1019.98 1019.90 1019.83 1019.71 1019.52 1019.21 1018.78 1018.23 1017.60 1016.91 1016.20 1015.49 1014.82 1014.20 1013.63 1013.11 1012.64 1012.19 1011.76 1011.34 1010.93 1010.52 1010.12 1009.74
1023.10 1023.16 1023.16 1023.13 1023.12 1023.15 1023.22 1023.32 1023.40 1023.44 1023.39 1023.23 1022.96 1022.59 1022.17 1021.73 1021.33 1021.00 1020.75 1020.57 1020.43 1020.29 1020.10 1019.82 1019.42 1018.90 1018.27 1017.55 1016.78 1016.00 1015.25 1014.56 1013.92 1013.36 1012.84 1012.37 1011.92 1011.49 1011.04 1010.60 1010.14 1009.69 1009.24
1023.45 1023.47 1023.42 1023.34 1023.28 1023.28 1023.33 1023.44 1023.55 1023.65 1023.67 1023.60 1023.41 1023.12 1022.76 1022.37 1021.98 1021.64 1021.34 1021.10 1020.88 1020.64 1020.34 1019.94 1019.43 1018.80 1018.08 1017.28 1016.45 1015.64 1014.87 1014.17 1013.56 1013.01 1012.51 1012.05 1011.60 1011.14 1010.67 1010.17 1009.67 1009.17 1008.68
1023.72 1023.69 1023.58 1023.45 1023.34 1023.29 1023.32 1023.42 1023.56 1023.70 1023.79 1023.79 1023.69 1023.48 1023.19 1022.84 1022.48 1022.12 1021.79 1021.47 1021.16 1020.80 1020.38 1019.86 1019.24 1018.50 1017.68 1016.82 1015.96 1015.14 1014.38 1013.70 1013.11 1012.59 1012.10 1011.63 1011.14 1010.64 1010.10 1009.55 1008.98 1008.43 1007.91
1023.91 1023.82 1023.65 1023.46 1023.30 1023.21 1023.20 1023.28 1023.43 1023.59 1023.72 1023.79 1023.75 1023.62 1023.39 1023.09 1022.74 1022.38 1022.01 1021.63 1021.23 1020.77 1020.23 1019.60 1018.86 1018.04 1017.16 1016.26 1015.38 1014.56 1013.83 1013.19 1012.62 1012.09 1011.59 1011.06 1010.50 1009.90 1009.25 1008.59 1007.94 1007.32 1006.77
1024.04 1023.89 1023.67 1023.43 1023.22 1023.08 1023.03 1023.08 1023.20 1023.36 1023.50 1023.59 1023.60 1023.50 1023.32 1023.05 1022.74 1022.38 1021.99 1021.56 1021.09 1020.55 1019.93 1019.20 1018.39 1017.50 1016.58 1015.66 1014.80 1014.00 1013.29 1012.67 1012.09 1011.54 1010.96 1010.33 1009.63 1008.86 1008.04 1007.22 1006.44 1005.74 1005.16
1024.13 1023.94 1023.68 1023.40 1023.15 1022.96 1022.87 1022.86 1022.94 1023.05 1023.16 1023.24 1023.24 1023.16 1023.00 1022.76 1022.46 1022.12 1021.73 1021.29 1020.79 1020.20 1019.53 1018.76 1017.90 1016.98 1016.04 1015.13 1014.28 1013.50 1012.81 1012.18 1011.57 1010.94 1010.24 1009.44 1008.52 1007.52 1006.47 1005.43 1004.47 1003.66 1003.03
1024.20 1023.98 1023.71 1023.40 1023.12 1022.90 1022.75 1022.68 1022.68 1022.72 1022.76 1022.78 1022.75 1022.64 1022.48 1022.25 1021.97 1021.65 1021.28 1020.86 1020.37 1019.79 1019.10 1018.32 1017.46 1016.54 1015.61 1014.71 1013.87 1013.11 1012.42 1011.75 1011.07 1010.32 1009.44 1008.41 1007.23 1005.94 1004.59 1003.28 1002.10 1001.13 1000.44
1024.24 1024.03 1023.75 1023.45 1023.15 1022.89 1022.69 1022.55 1022.46 1022.40 1022.35 1022.28 1022.17 1022.02 1021.82 1021.60 1021.34 1021.05 1020.73 1020.35 1019.90 1019.36 1018.71 1017.95 1017.10 1016.21 1015.30 1014.42 1013.59 1012.83 1012.11 1011.39 1010.61 1009.70 1008.62 1007.33 1005.85 1004.24 1002.57 1000.95 999.52 998.36 997.56
1024.26 1024.06 1023.80 1023.51 1023.21 1022.93 1022.68 1022.46 1022.28 1022.12 1021.95 1021.77 1021.58 1021.36 1021.12 1020.88 1020.64 1020.40 1020.13 1019.82 1019.44 1018.95 1018.36 1017.65 1016.85 1015.98 1015.09 1014.22 1013.40 1012.62 1011.86 1011.08 1010.19 1009.12 1007.84 1006.30 1004.54 1002.61 1000.61 998.69 996.98 995.61 994.68
1024.24 1024.05 1023.82 1023.54 1023.25 1022.95 1022.66 1022.39 1022.12 1021.85 1021.58 1021.30 1021.00 1020.71 1020.44 1020.18 1019.95 1019.75 1019.54 1019.30 1018.99 1018.58 1018.05 1017.40 1016.64 1015.80 1014.93 1014.07 1013.24 1012.45 1011.65 1010.80 1009.82 1008.63 1007.18 1005.44 1003.44 1001.24 998.97 996.76 994.79 993.20 992.09
1024.16 1023.99 1023.77 1023.51 1023.22 1022.91 1022.59 1022.27 1021.93 1021.59 1021.23 1020.85 1020.48 1020.12 1019.80 1019.53 1019.32 1019.14 1018.99 1018.81 1018.57 1018.23 1017.76 1017.16 1016.43 1015.62 1014.77 1013.91 1013.07 1012.26 1011.44 1010.55 1009.52 1008.26 1006.71 1004.85 1002.70 1000.32 997.84 995.41 993.21 991.40 990.09
1024.06 1023.88 1023.64 1023.38 1023.08 1022.76 1022.42 1022.07 1021.69 1021.29 1020.87 1020.44 1020.00 1019.60 1019.25 1018.96 1018.75 1018.60 1018.48 1018.35 1018.16 1017.87 1017.44 1016.88 1016.18 1015.39 1014.54 1013.69 1012.85 1012.04 1011.22 1010.33 1009.30 1008.04 1006.48 1004.60 1002.40 999.95 997.36 994.79 992.42 990.41 988.90
1023.94 1023.71 1023.44 1023.14 1022.82 1022.49 1022.14 1021.77 1021.38 1020.95 1020.50 1020.04 1019.57 1019.14 1018.77 1018.47 1018.26 1018.12 1018.01 1017.91 1017.74 1017.48 1017.09 1016.55 1015.87 1015.09 1014.26 1013.41 1012.59 1011.79 1011.00 1010.16 1009.19 1008.00 1006.52 1004.72 1002.58 1000.17 997.58 994.97 992.50 990.35 988.65
1023.83 1023.52 1023.19 1022.84 1022.48 1022.12 1021.76 1021.39 1021.00 1020.58 1020.13 1019.66 1019.19 1018.76 1018.37 1018.06 1017.84 1017.69 1017.59 1017.48 1017.33 1017.08 1016.69 1016.17 1015.51 1014.75 1013.93 1013.11 1012.32 1011.56 1010.83 1010.07 1009.20 1008.15 1006.83 1005.19 1003.21 1000.94 998.46 995.90 993.43 991.19 989.35
1023.76 1023.36 1022.94 1022.51 1022.11 1021.72 1021.34 1020.98 1020.60 1020.20 1019.77 1019.32 1018.87 1018.44 1018.06 1017.74 1017.50 1017.33 1017.21 1017.09 1016.92 1016.67 1016.30 1015.78 1015.15 1014.41 1013.63 1012.84 1012.09 1011.40 1010.74 1010.09 1009.36 1008.48 1007.36 1005.94 1004.20 1002.16 999.88 997.47 995.07 992.84 990.91
1023.76 1023.25 1022.73 1022.23 1021.76 1021.33 1020.95 1020.59 1020.23 1019.86 1019.47 1019.06 1018.64 1018.22 1017.84 1017.51 1017.25 1017.06 1016.90 1016.76 1016.57 1016.31 1015.94 1015.45 1014.84 1014.14 1013.40 1012.67 1011.98 1011.36 1010.80 1010.25 1009.67 1008.97 1008.07 1006.91 1005.44 1003.68 1001.67 999.48 997.25 995.11 993.18
1023.82 1023.21 1022.60 1022.02 1021.50 1021.04 1020.64 1020.29 1019.96 1019.62 1019.27 1018.89 1018.50 1018.10 1017.73 1017.40 1017.11 1016.88 1016.69 1016.51 1016.30 1016.04 1015.68 1015.21 1014.64 1014.00 1013.33 1012.66 1012.04 1011.49 1011.01 1010.57 1010.12 1009.58 1008.89 1007.97 1006.79 1005.33 1003.62 1001.72 999.73 997.77 995.94
1023.92 1023.24 1022.57 1021.94 1021.37 1020.89 1020.47 1020.12 1019.80 1019.50 1019.18 1018.84 1018.48 1018.11 1017.74 1017.40 1017.09 1016.84 1016.61 1016.39 1016.17 1015.89 1015.55 1015.12 1014.61 1014.04 1013.43 1012.84 1012.29 1011.81 1011.39 1011.03 1010.68 1010.27 1009.75 1009.05 1008.13 1006.97 1005.58 1004.00 1002.31 1000.59 998.94
Thickness
5585 5585 5585 5584 5584 5585 5586 5587 5588 5589 5590 5591 5593 5594 5595 5596 5597 5599 5600 5602 5605 5607 5609 5611 5613 5616 5617 5618 5619 5620 5620 5622 5623 5624 5626 5627 5628 5630 5631 5632 5634 5635 5637
5576 5576 5575 5575 5575 5575 5576 5576 5577 5578 5579 5580 5581 5583 5584 5585 5587 5588 5590 5591 5593 5596 5598 5600 5603 5605 5607 5608 5609 5610 5610 5611 5613 5615 5616 5618 5619 5621 5622 5623 5625 5627 5629
5566 5566 5566 5565 5564 5565 5565 5565 5566 5567 5567 5568 5569 5571 5573 5574 5575 5577 5578 5580 5582 5584 5586 5589 5591 5593 5596 5597 5598 5599 5600 5601 5603 5604 5606 5608 5609 5611 5613 5614 5616 5618 5620
5557 5556 5555 5555 5554 5554 5554 5554 5554 5554 5554 5555 5556 5557 5560 5562 5563 5565 5567 5568 5570 5572 5574 5576 5578 5581 5583 5585 5587 5588 5589 5591 5592 5594 5595 5598 5599 5601 5603 5604 5606 5609 5611
5546 5546 5545 5544 5543 5543 5543 5542 5542 5541 5540 5540 5542 5544 5546 5548 5550 5552 5554 5556 5557 5559 5561 5563 5565 5568 5570 5572 5575 5577 5578 5579 5581 5583 5584 5586 5588 5590 5592 5594 5596 5599 5601
5535 5534 5534 5533 5532 5531 5530 5529 5528 5527 5526 5526 5528 5530 5532 5535 5537 5539 5540 5542 5544 5546 5548 5550 5552 5554 5557 5559 5562 5564 5566 5567 5569 5571 5573 5575 5577 5579 5581 5584 5586 5589 5591
5522 5522 5522 5521 5520 5518 5517 5516 5515 5513 5512 5513 5514 5515 5518 5522 5524 5525 5526 5528 5530 5532 5534 5537 5539 5541 5543 5545 5547 5550 5552 5555 5557 5558 5561 5563 5565 5567 5570 5573 5575 5578 5581
5510 5510 5509 5508 5507 5505 5503 5502 5500 5498 5498 5499 5498 5499 5501 5505 5508 5510 5512 5514 5516 5518 5520 5522 5525 5527 5529 5531 5533 5535 5538 5541 5543 5546 5548 5550 5553 5555 5558 5560 5563 5566 5569
5498 5497 5496 5495 5494 5492 5490 5488 5486 5485 5483 5484 5484 5484 5484 5486 5487 5493 5497 5499 5501 5503 5505 5507 5510 5512 5515 5517 5518 5520 5523 5526 5529 5532 5534 5537 5539 5542 5545 5548 5551 5554 5557
5485 5484 5483 5482 5481 5479 5477 5475 5473 5472 5471 5469 5469 5470 5470 5470 5470 5474 5480 5483 5485 5487 5490 5493 5495 5498 5500 5502 5504 5505 5508 5511 5514 5517 5520 5523 5525 5528 5531 5534 5537 5540 5544
5472 5471 5470 5469 5468 5466 5464 5462 5460 5459 5457 5456 5455 5455 5455 5456 5457 5457 5462 5466 5468 5471 5474 5477 5480 5482 5485 5487 5489 5490 5493 5496 5499 5501 5504 5507 5509 5512 5515 5519 5522 5525 5529
5460 5460 5458 5456 5455 5453 5451 5449 5447 5446 5444 5443 5442 5441 5441 5441 5442 5443 5445 5447 5451 5456 5458 5461 5464 5467 5469 5471 5473 5475 5478 5480 5482 5485 5488 5490 5493 5496 5499 5502 5506 5509 5513
5448 5447 5446 5444 5442 5440 5438 5436 5434 5433 5431 5430 5429 5428 5429 5429 5430 5430 5431 5433 5436 5440 5443 5446 5448 5451 5452 5455 5457 5459 5462 5464 5466 5468 5471 5474 5476 5478 5481 5485 5488 5492 5496
5438 5436 5434 5431 5429 5427 5425 5423 5421 5420 5419 5417 5417 5416 5415 5416 5416 5417 5418 5418 5419 5424 5427 5430 5433 5434 5436 5439 5441 5443 5445 5447 5449 5451 5454 5456 5458 5460 5464 5467 5471 5475 5479
5426 5424 5421 5419 5416 5414 5412 5410 5409 5407 5406 5405 5404 5403 5402 5403 5403 5404 5405 5405 5404 5406 5413 5415 5416 5419 5420 5422 5424 5426 5429 5430 5433 5435 5437 5439 5441 5443 5446 5450 5453 5457 5461
5414 5411 5408 5406 5404 5401 5399 5398 5396 5395 5393 5392 5391 5390 5389 5389 5390 5390 5390 5390 5390 5391 5395 5401 5400 5402 5403 5406 5408 5411 5414 5415 5417 5418 5421 5423 5425 5427 5429 5433 5437 5441 5445
5401 5399 5396 5394 5392 5389 5387 5385 5384 5382 5380 5379 5378 5377 5377 5376 5376 5376 5376 5377 5376 5376 5379 5385 5385 5387 5388 5390 5393 5395 5398 5400 5401 5403 5405 5407 5409 5411 5414 5417 5421 5425 5429
5389 5386 5384 5381 5379 5377 5375 5373 5371 5370 5368 5367 5365 5364 5364 5363 5363 5363 5362 5363 5363 5362 5363 5368 5371 5371 5373 5374 5377 5379 5382 5384 5386 5388 5390 5392 5394 5396 5399 5402 5406 5410 5414
5376 5373 5371 5369 5367 5365 5363 5361 5359 5358 5356 5354 5353 5352 5351 5351 5351 5350 5349 5349 5349 5350 5350 5352 5356 5357 5358 5360 5361 5364 5366 5369 5370 5372 5374 5377 5379 5381 5383 5386 5390 5394 5398
5363 5361 5359 5357 5355 5353 5351 5350 5348 5346 5344 5343 5341 5341 5340 5339 5339 5338 5337 5337 5336 5336 5336 5337 5340 5343 5344 5346 5346 5348 5350 5352 5355 5357 5359 5361 5363 5365 5368 5371 5375 5378 5382
5351 5349 5348 5345 5344 5342 5341 5339 5337 5335 5333 5332 5331 5330 5329 5328 5328 5327 5327 5326 5325 5324 5323 5324 5326 5328 5330 5331 5332 5333 5335 5337 5340 5341 5344 5346 5348 5351 5352 5355 5358 5361 5366
5339 5337 5336 5334 5332 5332 5331 5330 5328 5325 5323 5322 5320 5319 5318 5317 5317 5316 5316 5315 5315 5313 5312 5312 5313 5314 5316 5316 5317 5318 5319 5322 5326 5327 5328 5331 5333 5336 5338 5340 5343 5347 5351
5327 5325 5324 5322 5321 5320 5320 5319 5318 5315 5313 5311 5310 5308 5308 5307 5305 5304 5304 5304 5303 5303 5303 5302 5302 5303 5303 5303 5303 5304 5305 5307 5310 5312 5313 5318 5319 5322 5325 5327 5330 5333 5336
5316 5314 5313 5311 5310 5310 5309 5309 5308 5305 5303 5301 5299 5298 5296 5295 5294 5293 5293 5292 5292 5291 5291 5291 5292 5292 5291 5291 5291 5291 5292 5294 5297 5298 5299 5303 5307 5309 5313 5314 5316 5319 5321
5304 5303 5302 5301 5299 5299 5299 5299 5298 5294 5293 5291 5289 5288 5287 5286 5285 5284 5283 5282 5282 5281 5280 5280 5281 5281 5280 5280 5280 5280 5280 5281 5284 5287 5286 5288 5293 5296 5300 5302 5304 5305 5307
5293 5292 5291 5290 5289 5289 5289 5290 5288 5285 5283 5281 5280 5278 5277 5277 5276 5276 5274 5272 5271 5271 5270 5270 5270 5269 5269 5269 5269 5268 5268 5269 5271 5274 5276 5275 5277 5279 5285 5290 5290 5290 5292